Flag for Germany Weather past 2 weeks in Cuxhaven, Lower Saxony, Germany

Now
57 °F

Passing clouds.


Feels Like: 57 °F
Forecast: 59 / 69 °F
Wind: 2 mph from Southeast

Location: Nordholz

Current Time: Aug 29, 2015 at 11:46:55 PM

Latest Report: Aug 29, 2015 at 10:20 PM


Visibility: N/A

Pressure: 30.15 "Hg

Humidity: 88%

Dew point: 54 °F

Location of CuxhavenLocation

Historic Weather in Cuxhaven — Graph

°F

Cuxhaven temperature yesterday

Maximum temperature yesterday: 68 °F (at 3:20 PM)
Minimum temperature yesterday: 55 °F (at 9:20 PM)
Average temperature yesterday: 60 °F

Past Weeks' High & Low Weather Summary

 TemperatureHumidityPressure
High77 °F (Aug 15, 1:20 PM)100% (Aug 15, 6:20 AM)30.27 "Hg (Aug 15, 6:20 AM)
Low52 °F (Aug 29, 3:20 AM)34% (Aug 22, 3:20 PM)29.53 "Hg (Aug 24, 7:20 PM)
Average64 °F83%29.94 "Hg
* Reported Aug 14 10:20 PM — Aug 29 10:20 PM, Cuxhaven, Weather by CustomWeather, © 2015

Note: Actual official high and low records may vary slightly from our data, if they occured in-between our weather recording intervals... More about our weather records

Advertising

Cuxhaven weather history for previous 24 hours

 ConditionsComfort  
Time TempWeatherWind HumidityBarometerVisibility
10:20 PM
Sat, Aug 29
57 °FPassing clouds.2 mph88%30.15 "HgN/A
9:20 PM59 °FScattered clouds.No wind88%30.15 "HgN/A
8:20 PM59 °FScattered clouds.1 mph88%30.15 "HgN/A
7:20 PM68 °FScattered clouds.2 mph73%30.15 "HgN/A
6:20 PM70 °FPartly sunny.5 mph57%30.15 "HgN/A
5:20 PM72 °FPartly sunny.5 mph53%30.15 "HgN/A
4:20 PM70 °FScattered clouds.7 mph57%30.18 "HgN/A
3:20 PM72 °FScattered clouds.6 mph53%30.18 "HgN/A
2:20 PM68 °FScattered clouds.6 mph60%30.21 "HgN/A
1:20 PM68 °FPartly sunny.7 mph64%30.21 "HgN/A
11:20 AM63 °FPartly sunny.6 mph77%30.21 "HgN/A
10:20 AM63 °FPartly sunny.6 mph77%30.21 "HgN/A
9:20 AM59 °FPartly sunny.7 mph88%30.21 "HgN/A
7:20 AM54 °FFog.7 mph100%30.18 "HgN/A
6:20 AM52 °FFog.5 mph94%30.18 "Hg5 mi
5:20 AM54 °FFog.7 mph94%30.18 "HgN/A
4:20 AM52 °FPassing clouds.7 mph94%30.18 "HgN/A
3:20 AM52 °FPassing clouds.6 mph94%30.15 "HgN/A
2:20 AM54 °FPassing clouds.6 mph94%30.15 "HgN/A
1:20 AM54 °FPassing clouds.6 mph94%30.15 "HgN/A
12:20 AM54 °FPassing clouds.5 mph94%30.12 "HgN/A
11:20 PM
Fri, Aug 28
55 °FPassing clouds.6 mph94%30.12 "HgN/A
Weather by CustomWeather, © 2015

See weather overviewHow to use our weather pages